KF5DKO Weather Reports


Display with metric or nautical units.
time (UTC)temp
F
wind
direction
speed
MPH
gust
MPH
rain 1hr
in
rain 24hr
in
rain mn
in
humidity
%
barometer
mb
20260508093105 68 42 0.0 3.0 0.00 0.02 0.00 98 1011.6
20260508092558 68 42 1.0 3.0 0.00 0.02 0.00 98 1011.7
20260508092057 68 42 0.0 4.0 0.00 0.02 0.00 98 1011.7
20260508091611 68 42 0.0 4.0 0.00 0.02 0.00 98 1011.7
20260508091057 68 40 0.0 3.0 0.00 0.02 0.00 98 1011.7
20260508090556 68 40 0.0 2.0 0.00 0.02 0.00 98 1011.7
20260508090108 68 40 0.0 3.0 0.00 0.02 0.00 98 1011.7
20260508085556 68 40 0.0 3.0 0.00 0.02 0.00 98 1011.6
20260508085100 68 40 0.0 6.0 0.00 0.02 0.00 98 1011.6
20260508084557 68 41 1.0 6.0 0.00 0.02 0.00 98 1011.6
20260508084056 68 41 0.0 5.0 0.00 0.02 0.00 98 1011.7
20260508083555 68 40 0.0 4.0 0.00 0.02 0.00 98 1011.7
20260508083107 68 40 1.0 6.0 0.00 0.02 0.00 98 1011.7
20260508082555 69 40 1.0 6.0 0.00 0.02 0.00 98 1011.7
20260508082055 69 42 1.0 5.0 0.00 0.02 0.00 98 1011.7
20260508081601 69 42 1.0 4.0 0.00 0.02 0.00 98 1011.7
20260508081053 69 42 0.0 4.0 0.00 0.02 0.00 98 1011.7
20260508080553 69 42 1.0 4.0 0.00 0.02 0.00 98 1011.7
20260508080101 69 42 0.0 3.0 0.00 0.02 0.00 98 1011.7
20260508075553 69 42 0.0 5.0 0.00 0.02 0.00 98 1011.9
20260508075052 69 42 0.0 5.0 0.00 0.02 0.00 98 1011.9
20260508074558 69 42 0.0 4.0 0.00 0.02 0.00 98 1011.9
20260508074052 69 42 0.0 4.0 0.00 0.02 0.00 98 1012.2
20260508073551 69 43 0.0 3.0 0.00 0.02 0.00 98 1012.2
20260508073052 69 43 0.0 3.0 0.00 0.02 0.00 98 1012.2
20260508072551 69 43 0.0 5.0 0.00 0.02 0.00 98 1012.2
20260508072051 69 42 0.0 7.0 0.00 0.02 0.00 98 1012.2
20260508071551 69 42 1.0 7.0 0.00 0.02 0.00 98 1012.2
20260508071050 69 53 1.0 6.0 0.00 0.02 0.00 98 1011.8
20260508070551 69 68 1.0 3.0 0.00 0.02 0.00 99 1011.8
20260508070051 69 68 0.0 2.0 0.00 0.02 0.00 99 1011.8
20260508065550 69 68 0.0 1.0 0.00 0.02 0.00 99 1012.1
20260508065049 69 68 0.0 1.0 0.00 0.02 0.00 99 1012.1
20260508064551 69 68 0.0 1.0 0.00 0.02 0.00 98 1012.1
20260508064053 69 68 0.0 2.0 0.00 0.02 0.00 98 1012.0
20260508063549 69 68 0.0 3.0 0.00 0.02 0.00 98 1012.0
20260508063048 69 68 0.0 3.0 0.00 0.02 0.00 98 1012.0
20260508062547 69 68 0.0 2.0 0.00 0.02 0.00 98 1012.5
20260508062047 69 68 0.0 2.0 0.00 0.02 0.00 98 1012.5
20260508061547 69 68 0.0 2.0 0.00 0.02 0.00 98 1012.5
20260508061047 69 68 0.0 2.0 0.00 0.02 0.00 98 1012.6
20260508060546 69 68 0.0 2.0 0.00 0.02 0.00 98 1012.6
20260508060048 70 68 0.0 2.0 0.00 0.02 0.00 98 1012.6
20260508055547 70 68 0.0 2.0 0.00 0.02 0.00 98 1012.7
20260508055046 70 68 0.0 2.0 0.00 0.02 0.00 98 1012.7
20260508054547 70 68 0.0 2.0 0.00 0.02 0.00 98 1012.7
20260508054045 70 68 0.0 1.0 0.00 0.02 0.00 98 1013.0
20260508053544 70 68 0.0 2.0 0.00 0.02 0.00 97 1013.0
20260508053052 70 68 0.0 2.0 0.00 0.02 0.00 97 1013.0
20260508052544 70 68 0.0 4.0 0.00 0.02 0.00 97 1013.2
20260508052044 70 68 1.0 4.0 0.00 0.02 0.00 97 1013.2
20260508051546 70 68 0.0 5.0 0.00 0.02 0.00 97 1013.2
20260508051045 70 68 0.0 5.0 0.00 0.02 0.00 97 1013.0
20260508050541 70 67 0.0 4.0 0.00 0.02 0.00 98 1013.0
20260508050041 70 67 0.0 4.0 0.00 0.02 0.00 98 1013.0
20260508045541 70 66 1.0 7.0 0.00 0.02 0.02 98 1013.2
20260508045044 70 65 3.0 7.0 0.00 0.02 0.02 98 1013.2
20260508044541 71 42 1.0 4.0 0.00 0.02 0.02 98 1013.2
20260508044043 71 39 1.0 4.0 0.00 0.02 0.02 98 1013.3
20260508043541 71 36 0.0 2.0 0.00 0.02 0.02 98 1013.3
20260508043048 71 36 0.0 2.0 0.00 0.02 0.02 98 1013.3
20260508042541 71 36 0.0 1.0 0.00 0.02 0.02 98 1013.4
20260508042040 71 36 0.0 0.0 0.00 0.02 0.02 98 1013.4
20260508041541 71 36 0.0 2.0 0.00 0.02 0.02 98 1013.4
20260508041042 71 36 0.0 2.0 0.00 0.02 0.02 98 1013.6
20260508040540 71 36 0.0 2.0 0.00 0.02 0.02 98 1013.6
20260508040040 71 36 0.0 2.0 0.00 0.02 0.02 98 1013.6
20260508035539 71 36 0.0 2.0 0.00 0.02 0.02 98 1013.6
20260508035040 71 36 0.0 2.0 0.00 0.02 0.02 99 1013.6
20260508034547 71 36 0.0 2.0 0.00 0.02 0.02 98 1013.6
20260508034038 71 36 0.0 2.0 0.00 0.02 0.02 98 1013.3
20260508033538 71 36 0.0 2.0 0.00 0.02 0.02 99 1013.3
20260508033038 71 36 0.0 2.0 0.00 0.02 0.02 99 1013.3
20260508032538 72 36 0.0 2.0 0.00 0.02 0.02 98 1013.4
20260508032037 72 36 0.0 0.0 0.00 0.02 0.02 99 1013.4
20260508031538 72 36 0.0 0.0 0.00 0.02 0.02 98 1013.4
20260508031037 72 36 0.0 0.0 0.00 0.02 0.02 98 1013.2
20260508030537 72 36 0.0 0.0 0.00 0.02 0.02 98 1013.2
20260508030038 72 36 0.0 0.0 0.00 0.02 0.02 98 1013.2
20260508025537 72 36 0.0 0.0 0.01 0.02 0.02 98 1013.0
20260508025037 72 36 0.0 0.0 0.01 0.02 0.02 98 1013.0
20260508024537 72 36 0.0 0.0 0.01 0.02 0.02 98 1013.0
20260508024037 72 36 0.0 0.0 0.01 0.02 0.02 98 1013.1
20260508023537 72 36 0.0 0.0 0.01 0.02 0.02 98 1013.1
20260508023036 72 36 0.0 0.0 0.02 0.02 0.02 97 1013.1
20260508022536 72 36 0.0 0.0 0.02 0.02 0.02 97 1013.1
20260508022036 73 36 0.0 0.0 0.02 0.02 0.02 97 1013.1
20260508021536 73 36 0.0 0.0 0.02 0.02 0.02 97 1013.1
20260508021036 73 36 0.0 0.0 0.02 0.02 0.02 96 1012.8
20260508020535 73 36 0.0 0.0 0.02 0.02 0.02 96 1012.8
20260508020038 73 36 0.0 1.0 0.02 0.02 0.02 96 1012.8
20260508015538 73 36 0.0 1.0 0.01 0.01 0.01 96 1012.7
20260508015035 74 36 0.0 1.0 0.01 0.01 0.01 95 1012.7
20260508014535 74 36 0.0 2.0 0.01 0.01 0.01 95 1012.7
20260508014036 74 36 0.0 4.0 0.01 0.01 0.01 94 1012.2
20260508013534 74 36 0.0 5.0 0.01 0.01 0.01 94 1012.2
20260508013036 74 35 1.0 4.0 0.00 0.00 0.00 94 1012.2
20260508012536 74 35 0.0 3.0 0.00 0.00 0.00 93 1012.5
20260508012033 74 35 0.0 2.0 0.00 0.00 0.00 93 1012.5
20260508011533 74 35 0.0 2.0 0.00 0.00 0.00 93 1012.5
20260508011032 74 35 0.0 2.0 0.00 0.00 0.00 93 1011.9
20260508010531 74 35 0.0 2.0 0.00 0.00 0.00 93 1011.9
20260508010033 74 35 0.0 2.0 0.00 0.00 0.00 93 1011.9
20260508005530 75 35 0.0 0.0 0.00 0.00 0.00 93 1012.2
20260508005031 75 35 0.0 0.0 0.00 0.00 0.00 92 1012.2
20260508004532 75 35 0.0 3.0 0.00 0.00 0.00 92 1012.2
20260508004030 75 35 0.0 3.0 0.00 0.00 0.00 92 1012.2
20260508003530 75 35 0.0 3.0 0.00 0.00 0.00 91 1012.2
20260508003030 75 35 0.0 3.0 0.00 0.00 0.00 92 1012.2
20260508002529 75 35 0.0 1.0 0.00 0.00 0.00 92 1011.7
20260508002029 75 35 0.0 1.0 0.00 0.00 0.00 92 1011.7
20260508001528 75 35 0.0 3.0 0.00 0.00 0.00 92 1011.7
20260508001028 75 35 0.0 4.0 0.00 0.00 0.00 92 1011.7
20260508000531 75 35 0.0 2.0 0.00 0.00 0.00 92 1011.7
20260508000027 75 35 0.0 1.0 0.00 0.00 0.00 92 1011.7
20260507235532 75 35 0.0 2.0 0.00 0.00 0.00 91 1011.9
20260507235027 75 35 0.0 2.0 0.00 0.00 0.00 92 1011.9
20260507234537 75 35 0.0 1.0 0.00 0.00 0.00 91 1011.9
20260507234028 75 35 0.0 2.0 0.00 0.00 0.00 91 1012.0
20260507233526 75 35 1.0 3.0 0.00 0.00 0.00 91 1012.0
20260507233026 75 35 0.0 3.0 0.00 0.00 0.00 91 1012.0
20260507232529 75 35 0.0 2.0 0.00 0.00 0.00 92 1012.1
20260507232028 75 35 0.0 2.0 0.00 0.00 0.00 91 1012.1
20260507231525 75 35 0.0 1.0 0.00 0.00 0.00 91 1012.1
20260507231025 75 35 0.0 1.0 0.00 0.00 0.00 91 1011.9
20260507230526 75 35 0.0 0.0 0.00 0.00 0.00 91 1011.9
20260507230025 75 35 0.0 2.0 0.00 0.00 0.00 91 1011.9
20260507225525 75 35 0.0 2.0 0.00 0.00 0.00 90 1011.8
20260507225028 75 35 0.0 2.0 0.00 0.00 0.00 90 1011.8
20260507224527 75 35 0.0 1.0 0.00 0.00 0.00 91 1011.8
20260507224024 75 35 0.0 2.0 0.00 0.00 0.00 91 1011.9
20260507223524 75 35 0.0 2.0 0.00 0.00 0.00 91 1011.9
20260507223024 75 35 0.0 1.0 0.00 0.00 0.00 91 1011.9
20260507222523 75 35 0.0 1.0 0.00 0.00 0.00 91 1012.1
20260507222023 75 35 0.0 1.0 0.00 0.00 0.00 92 1012.1
20260507221524 75 35 0.0 1.0 0.00 0.00 0.00 93 1012.1
20260507221023 74 35 0.0 1.0 0.00 0.00 0.00 92 1011.8
20260507220525 74 35 0.0 2.0 0.00 0.00 0.00 91 1011.8
20260507220023 74 35 0.0 3.0 0.00 0.00 0.00 92 1011.8
20260507215526 74 35 0.0 4.0 0.00 0.00 0.00 93 1011.7
20260507215022 74 34 1.0 4.0 0.00 0.00 0.00 92 1011.7
20260507214526 74 31 0.0 3.0 0.00 0.00 0.00 92 1011.7
20260507214023 74 31 0.0 3.0 0.00 0.00 0.00 93 1011.7
20260507213524 74 31 0.0 2.0 0.00 0.00 0.00 93 1011.7
20260507213022 74 31 0.0 2.0 0.00 0.00 0.00 93 1011.7
20260507212521 74 31 0.0 2.0 0.00 0.00 0.00 93 1011.7
20260507212022 74 31 0.0 4.0 0.00 0.00 0.00 93 1011.7
20260507211522 74 31 1.0 4.0 0.00 0.00 0.00 93 1011.7
20260507211021 74 29 1.0 6.0 0.00 0.00 0.00 93 1011.8
20260507210524 74 26 2.0 6.0 0.00 0.00 0.00 93 1011.8
20260507210026 73 22 0.0 2.0 0.00 0.00 0.00 93 1011.8
20260507205524 73 22 0.0 5.0 0.00 0.00 0.00 94 1011.7
20260507205022 73 22 2.0 5.0 0.00 0.00 0.00 94 1011.7
20260507204520 73 21 1.0 4.0 0.00 0.00 0.00 94 1011.7
20260507204020 73 19 1.0 4.0 0.00 0.00 0.00 95 1012.1
20260507203527 73 13 1.0 4.0 0.00 0.00 0.00 95 1012.1
20260507203020 72 14 0.0 4.0 0.00 0.00 0.00 95 1012.1
20260507202519 72 13 0.0 5.0 0.00 0.00 0.00 96 1012.2
20260507202020 72 13 1.0 7.0 0.00 0.00 0.00 95 1012.2
20260507201520 72 11 0.0 8.0 0.00 0.00 0.00 95 1012.2
20260507201024 72 350 2.0 8.0 0.00 0.00 0.00 95 1012.2
20260507200520 72 355 3.0 5.0 0.00 0.00 0.00 95 1012.2
20260507200021 72 355 1.0 6.0 0.00 0.00 0.00 96 1012.2
20260507195519 72 355 1.0 7.0 0.00 0.00 0.00 96 1012.2
20260507195019 72 360 1.0 7.0 0.00 0.00 0.00 96 1012.2
20260507194519 72 344 2.0 7.0 0.00 0.00 0.00 95 1012.2
20260507194020 72 342 2.0 5.0 0.00 0.00 0.00 95 1012.3
20260507193520 72 346 1.0 4.0 0.00 0.00 0.00 96 1012.3
20260507193018 72 346 2.0 7.0 0.00 0.00 0.00 95 1012.3
20260507192518 73 351 2.0 7.0 0.00 0.00 0.00 95 1012.5
20260507192018 73 5 2.0 6.0 0.00 0.00 0.00 95 1012.5
20260507191518 73 13 1.0 5.0 0.00 0.00 0.00 95 1012.5
20260507191017 72 13 1.0 5.0 0.00 0.00 0.00 95 1012.7
20260507190518 72 17 1.0 4.0 0.00 0.00 0.00 95 1012.7
20260507190018 72 5 0.0 3.0 0.00 0.00 0.00 95 1012.7
20260507185518 73 5 1.0 6.0 0.00 0.00 0.00 94 1012.7
20260507185017 73 5 1.0 6.0 0.00 0.00 0.00 94 1012.7
20260507184517 73 11 1.0 6.0 0.00 0.00 0.00 94 1012.7
20260507184116 73 30 1.0 4.0 0.00 0.00 0.00 94 1012.5
20260507183516 73 30 0.0 2.0 0.00 0.00 0.00 94 1012.5
20260507183016 73 30 0.0 3.0 0.00 0.00 0.00 94 1012.5
20260507182517 73 30 0.0 4.0 0.00 0.00 0.00 94 1012.8
20260507182016 72 30 1.0 5.0 0.00 0.00 0.00 95 1012.8
20260507181516 72 28 0.0 5.0 0.00 0.00 0.00 96 1012.8
20260507181016 72 20 0.0 5.0 0.00 0.00 0.00 96 1012.9
20260507180516 72 355 0.0 6.0 0.00 0.00 0.00 96 1012.9
20260507180018 72 355 3.0 6.0 0.00 0.00 0.00 96 1012.9
20260507175515 71 360 0.0 6.0 0.00 0.00 0.00 96 1013.2
20260507175015 71 360 2.0 8.0 0.00 0.00 0.00 96 1013.2
20260507174516 71 348 3.0 8.0 0.00 0.00 0.00 97 1013.2
20260507174014 71 355 1.0 5.0 0.00 0.00 0.00 97 1013.1
20260507173514 71 355 2.0 6.0 0.00 0.00 0.00 97 1013.1
20260507173026 71 348 3.0 6.0 0.00 0.00 0.00 96 1013.1
20260507172515 71 355 1.0 6.0 0.00 0.00 0.00 97 1013.2
20260507172017 71 360 3.0 7.0 0.00 0.00 0.00 97 1013.2
20260507171515 71 350 2.0 7.0 0.00 0.00 0.00 97 1013.2
20260507171014 71 360 2.0 7.0 0.00 0.00 0.00 96 1013.2
20260507170514 71 355 3.0 6.0 0.00 0.00 0.00 96 1013.2
20260507170014 71 15 2.0 4.0 0.00 0.00 0.00 96 1013.2
20260507165513 71 15 1.0 4.0 0.00 0.00 0.00 96 1013.2
20260507165013 71 16 1.0 5.0 0.00 0.00 0.00 96 1013.2
20260507164513 71 17 2.0 5.0 0.00 0.00 0.00 96 1013.2
20260507164013 71 17 1.0 5.0 0.00 0.00 0.00 97 1013.3
20260507163513 71 11 1.0 6.0 0.00 0.00 0.00 97 1013.3
20260507163012 71 360 3.0 8.0 0.00 0.00 0.00 97 1013.3
20260507162512 71 346 3.0 7.0 0.00 0.00 0.00 97 1013.3
20260507162013 71 355 1.0 5.0 0.00 0.00 0.00 98 1013.3
20260507161520 71 360 2.0 6.0 0.00 0.00 0.00 97 1013.3
20260507161012 70 9 2.0 9.0 0.00 0.00 0.00 98 1013.2
20260507160512 70 330 3.0 9.0 0.00 0.00 0.00 98 1013.2
20260507160012 70 341 2.0 7.0 0.00 0.00 0.00 98 1013.2
20260507155511 70 338 1.0 6.0 0.00 0.00 0.00 98 1013.2
20260507155013 70 348 2.0 6.0 0.00 0.00 0.00 98 1013.2
20260507154513 70 340 3.0 8.0 0.00 0.00 0.00 98 1013.2
20260507154012 70 317 3.0 8.0 0.00 0.00 0.00 98 1013.3
20260507153513 70 310 3.0 8.0 0.00 0.00 0.00 98 1013.3
20260507153011 70 331 2.0 6.0 0.00 0.00 0.00 98 1013.3
20260507152512 70 343 3.0 6.0 0.00 0.00 0.00 98 1013.2
20260507152010 70 327 3.0 7.0 0.00 0.00 0.00 98 1013.2
20260507151609 70 330 3.0 7.0 0.00 0.00 0.00 98 1013.2
20260507151008 70 323 3.0 9.0 0.00 0.00 0.00 98 1013.2
20260507150514 70 343 3.0 9.0 0.00 0.00 0.00 99 1013.2
20260507150008 70 331 5.0 9.0 0.00 0.00 0.00 98 1013.2
20260507145509 70 355 4.0 9.0 0.00 0.00 0.00 99 1013.2
20260507145006 70 355 3.0 8.0 0.00 0.00 0.00 99 1013.2
20260507144505 70 332 4.0 8.0 0.00 0.00 0.00 99 1013.2
20260507144005 70 332 2.0 7.0 0.00 0.00 0.00 99 1013.2
20260507143504 70 313 2.0 7.0 0.00 0.00 0.00 99 1013.2
20260507143006 70 340 3.0 6.0 0.00 0.00 0.00 99 1013.2
20260507142504 70 335 4.0 8.0 0.00 0.00 0.00 99 1013.1
20260507142007 70 355 5.0 11.0 0.00 0.00 0.00 99 1013.1
20260507141503 70 321 5.0 11.0 0.00 0.00 0.00 99 1013.1
20260507141002 71 334 4.0 9.0 0.00 0.00 0.00 99 1012.8
20260507140502 71 343 3.0 10.0 0.00 0.00 0.00 99 1012.8
20260507135559 71 13 3.0 8.0 0.00 0.00 0.00 99 1012.8
20260507135059 72 333 3.0 7.0 0.00 0.00 0.00 99 1012.8
20260507134600 72 323 2.0 6.0 0.00 0.00 0.00 99 1012.8
20260507134059 71 311 3.0 7.0 0.00 0.00 0.00 99 1012.7
20260507133558 71 309 4.0 7.0 0.00 0.00 0.00 99 1012.7
20260507133058 71 313 4.0 8.0 0.00 0.00 0.00 98 1012.7
20260507132557 72 298 5.0 8.0 0.00 0.00 0.00 98 1012.7
20260507132056 72 304 5.0 7.0 0.00 0.00 0.00 98 1012.7
20260507131554 73 314 2.0 6.0 0.00 0.00 0.00 98 1012.7
20260507131054 73 319 2.0 7.0 0.00 0.00 0.00 97 1012.6
20260507130554 74 327 4.0 9.0 0.00 0.00 0.00 97 1012.6
20260507130058 74 314 5.0 9.0 0.00 0.00 0.00 97 1012.6
20260507125550 75 310 4.0 9.0 0.00 0.01 0.00 97 1012.2
20260507125148 76 311 5.0 9.0 0.00 0.01 0.00 97 1012.2
20260507124547 77 318 3.0 7.0 0.00 0.01 0.00 97 1012.2
20260507124047 77 252 4.0 7.0 0.00 0.01 0.00 98 1011.9
20260507123547 77 253 4.0 7.0 0.00 0.01 0.00 98 1011.9
20260507123049 77 248 3.0 8.0 0.00 0.01 0.00 98 1011.9
20260507122546 77 244 5.0 8.0 0.00 0.01 0.00 98 1011.7
20260507122046 77 246 4.0 9.0 0.00 0.01 0.00 98 1011.7
20260507121546 77 245 4.0 8.0 0.00 0.01 0.00 98 1011.7
20260507121046 77 250 6.0 8.0 0.00 0.01 0.00 98 1011.5
20260507120545 77 250 3.0 7.0 0.00 0.01 0.00 98 1011.5
20260507120047 77 256 2.0 7.0 0.00 0.01 0.00 98 1011.5
20260507115545 77 246 4.0 8.0 0.00 0.01 0.00 98 1011.2
20260507115044 77 246 4.0 8.0 0.00 0.01 0.00 98 1011.2
20260507114545 77 244 4.0 6.0 0.00 0.01 0.00 98 1011.2
20260507114047 77 241 2.0 8.0 0.00 0.01 0.00 98 1011.1
20260507113543 77 241 2.0 8.0 0.00 0.01 0.00 98 1011.1
20260507113044 77 229 1.0 6.0 0.00 0.01 0.00 98 1011.1
20260507112543 77 229 1.0 5.0 0.00 0.01 0.00 98 1010.9
20260507112043 77 229 1.0 7.0 0.00 0.01 0.00 98 1010.9
20260507111547 77 225 1.0 7.0 0.00 0.01 0.00 98 1010.9
20260507111045 77 239 3.0 8.0 0.00 0.01 0.00 98 1010.7
20260507110542 77 242 3.0 6.0 0.00 0.01 0.00 98 1010.7
20260507110042 77 239 3.0 6.0 0.00 0.01 0.00 98 1010.7
20260507105542 77 240 2.0 7.0 0.00 0.02 0.00 98 1010.6
20260507105044 77 241 4.0 7.0 0.00 0.02 0.00 98 1010.6
20260507104541 77 232 4.0 6.0 0.00 0.02 0.00 98 1010.6
20260507104045 77 230 4.0 6.0 0.00 0.02 0.00 98 1010.5
20260507103539 77 240 2.0 6.0 0.00 0.02 0.00 98 1010.5
20260507103042 77 239 1.0 7.0 0.00 0.02 0.00 97 1010.5
20260507102540 77 238 4.0 7.0 0.00 0.02 0.00 97 1010.4
20260507102041 77 234 3.0 8.0 0.00 0.02 0.00 97 1010.4
20260507101546 77 244 4.0 8.0 0.00 0.02 0.00 97 1010.4
20260507101043 77 244 2.0 7.0 0.00 0.02 0.00 97 1010.3
20260507100539 77 239 3.0 6.0 0.00 0.02 0.00 97 1010.3
20260507100043 77 243 3.0 6.0 0.00 0.02 0.00 97 1010.3
20260507095539 77 243 3.0 7.0 0.00 0.02 0.00 97 1010.2
20260507095041 77 243 3.0 7.0 0.00 0.02 0.00 97 1010.2
20260507094545 77 243 3.0 7.0 0.00 0.02 0.00 97 1010.2
20260507094038 77 243 4.0 7.0 0.00 0.02 0.00 97 1010.1
20260507093538 77 242 4.0 7.0 0.00 0.02 0.00 97 1010.1